Temp
11 11 11 12 12 12 12 12 12 12 12 12 12 13 13 13 13 13 13 13 13 13 13 13 13 13 13 13 13 13 13 13 12 12 12 12 12 12 12 12 12 12 12 12 12 11 11 11 11 12 12 12 12 12 12 12 12 12 12 12 11 11 11 11 11 11 11 11 11
11 11 12 12 12 12 12 12 12 12 12 13 13 13 13 13 13 13 13 13 13 14 14 14 13 13 13 13 13 13 13 13 13 12 12 12 12 12 12 12 12 12 12 12 12 11 11 11 11 11 12 12 12 12 12 12 12 12 12 12 11 11 11 11 11 11 11 11 11
11 12 12 12 12 12 12 12 12 13 13 13 13 13 13 13 13 13 14 14 14 14 14 13 13 13 13 13 13 13 13 13 13 13 12 12 12 12 12 12 12 12 12 12 12 11 11 11 11 11 12 12 12 12 12 12 12 12 12 11 11 11 11 11 11 11 11 11 11
12 12 12 12 12 13 13 13 13 13 13 13 13 13 13 13 13 13 14 14 14 13 13 13 13 13 13 13 13 13 13 13 13 13 13 13 12 12 12 12 12 12 12 12 11 11 11 11 11 11 11 11 12 12 12 12 12 12 11 11 11 11 11 11 11 11 10 10 10
12 12 12 12 13 13 13 13 13 13 13 13 13 13 13 13 13 13 13 13 13 14 14 14 14 13 13 13 13 13 13 13 13 13 13 13 13 12 12 12 12 12 12 12 11 11 11 11 11 11 11 11 11 12 12 12 11 11 11 11 11 11 11 11 10 10 10 10 10
12 12 12 13 13 13 13 13 13 13 13 13 13 13 13 13 13 13 13 14 14 14 14 14 14 14 13 13 13 13 13 13 13 13 13 13 13 12 12 12 12 12 12 11 11 11 11 11 11 11 11 11 11 11 11 11 11 11 11 11 11 11 11 10 10 10 10 10 10
13 13 13 13 13 13 13 13 13 13 13 13 13 13 13 13 13 14 14 14 14 14 14 14 14 14 14 14 14 14 13 13 13 13 13 13 12 12 12 12 12 11 11 11 11 11 11 11 11 11 11 11 11 11 11 11 11 11 11 11 11 10 10 10 10 10 10 10 10
13 13 13 13 13 13 13 13 13 13 13 13 13 13 14 14 14 14 14 14 14 14 14 14 14 14 14 14 14 14 14 14 13 13 13 13 12 12 12 12 11 11 11 11 11 11 11 11 11 11 11 11 11 11 11 11 11 11 11 10 10 10 10 10 10 10 10 10 10
13 13 13 13 13 13 13 13 13 13 13 13 13 13 14 14 14 14 14 14 14 14 14 14 14 14 14 14 14 14 14 14 13 13 13 13 12 12 12 12 11 11 11 11 11 11 11 11 11 11 11 11 11 11 11 11 11 10 10 10 9 9 9 9 9 9 9 9 9
13 13 13 13 13 13 13 13 13 13 13 13 13 13 13 14 14 14 14 14 14 14 14 14 14 14 14 14 14 14 14 14 13 13 13 12 12 12 12 12 12 12 12 11 11 11 11 11 11 11 11 11 10 10 10 10 10 10 10 9 9 9 9 9 9 9 9 9 9
13 13 13 13 13 13 13 13 13 13 13 13 13 13 13 13 14 14 14 14 14 14 14 14 14 14 14 14 14 14 14 13 13 13 12 12 12 12 12 12 12 12 12 12 12 11 11 11 11 11 11 11 10 10 10 10 9 9 9 9 9 9 9 9 9 9 9 9 8
14 14 13 13 13 13 13 13 13 13 13 13 13 13 13 14 14 14 14 14 13 14 14 14 14 14 14 14 14 14 13 13 13 13 12 12 12 12 12 12 12 12 12 12 12 12 11 11 11 11 11 11 10 10 9 9 9 9 9 8 8 9 9 9 9 9 9 8 8
14 14 14 14 14 13 13 13 13 13 13 13 13 14 14 14 14 14 14 13 14 14 14 14 14 14 14 14 14 14 13 13 13 13 12 12 12 12 12 12 12 12 12 12 12 12 12 12 12 11 11 10 10 10 9 9 9 9 9 8 8 8 8 9 9 9 8 8 8
15 15 15 14 14 14 14 14 14 14 14 14 14 14 14 14 14 14 14 14 14 14 14 14 14 14 14 14 14 13 13 13 13 13 12 12 12 12 12 12 12 12 12 12 12 12 12 12 12 12 11 10 10 9 9 9 9 9 9 8 8 8 8 8 8 8 8 8 8
16 16 15 15 15 15 14 14 14 14 14 14 14 14 14 14 14 14 14 14 14 14 14 14 13 14 14 14 13 13 13 13 13 13 12 12 12 12 12 12 12 12 11 11 12 12 12 12 12 11 10 10 9 9 9 9 8 8 8 8 7 7 7 7 7 8 8 8 8
16 16 16 16 15 15 15 15 15 15 14 14 14 14 14 14 14 14 14 14 14 14 14 14 14 14 14 13 13 13 13 13 13 13 13 12 12 12 12 12 12 11 11 11 11 11 11 11 11 10 10 10 10 9 9 9 8 8 8 7 7 7 7 7 7 7 7 8 8
16 16 16 16 15 15 15 15 15 14 14 14 15 14 14 14 14 14 14 14 14 14 14 14 14 13 13 13 13 13 13 13 13 13 13 13 12 12 12 11 11 11 11 11 11 11 11 11 10 10 10 10 10 10 9 9 8 8 7 7 7 7 7 7 7 6 7 7 7
15 16 15 15 15 15 15 15 15 14 14 14 14 14 14 15 15 15 15 15 14 14 14 14 14 13 13 13 13 13 13 13 13 13 13 13 13 12 12 11 11 11 11 11 11 11 11 10 10 10 9 9 9 9 9 9 8 8 7 7 7 7 7 7 7 6 6 7 7
15 15 15 15 15 15 15 15 15 15 14 14 14 15 15 15 15 14 14 14 14 14 14 14 13 13 13 13 13 13 13 13 13 13 13 13 12 12 11 11 11 11 11 11 11 11 10 10 10 9 9 8 8 8 8 8 8 7 7 7 7 7 7 7 7 7 6 6 6
15 15 15 15 15 15 15 15 15 15 15 15 15 15 15 15 15 15 14 14 13 13 13 13 13 12 12 12 12 13 13 13 13 13 13 13 12 12 11 11 11 11 11 11 10 10 10 9 9 9 8 8 7 7 7 7 7 7 7 7 7 7 7 7 7 7 6 6 6
15 15 15 15 15 16 16 16 15 15 15 15 14 15 15 16 15 15 14 13 13 12 12 12 12 12 12 12 13 13 13 13 13 13 13 12 12 12 11 11 11 10 10 10 10 9 9 9 8 8 8 7 7 7 7 6 6 7 7 7 7 7 7 7 7 7 6 6 6
15 15 15 15 15 15 16 16 15 15 15 15 14 15 15 15 15 14 14 13 13 13 12 12 12 12 12 12 13 13 13 13 13 13 12 12 11 11 11 10 10 10 10 10 9 9 9 8 8 8 7 7 8 8 8 7 7 7 7 7 7 7 7 7 7 7 7 7 6
15 15 15 15 15 15 15 15 15 15 15 15 15 15 15 15 14 14 14 13 13 13 13 13 12 12 12 13 13 13 12 12 12 12 12 11 11 11 10 10 10 10 10 9 9 9 8 8 7 7 7 8 8 8 8 8 7 7 7 7 7 7 8 8 8 8 7 7 6
15 15 15 15 15 15 15 15 15 15 15 15 15 15 15 14 14 14 14 13 13 13 13 13 13 13 13 13 13 12 12 11 11 11 11 11 10 10 10 9 9 9 9 9 9 9 8 8 7 7 8 8 8 8 8 8 8 7 7 7 7 7 8 8 8 7 7 7 6
14 14 14 14 14 14 14 15 15 15 15 15 15 15 15 14 14 14 13 13 13 12 12 12 12 13 13 12 12 12 11 11 11 11 10 10 10 9 9 9 9 9 9 9 9 8 8 8 8 8 8 8 8 8 7 7 7 7 7 7 8 8 8 8 7 7 7 7 6
14 14 14 14 14 14 14 14 15 15 15 15 15 15 15 14 14 13 13 13 12 12 12 11 11 12 12 12 12 11 11 11 11 11 10 10 9 9 9 8 8 8 8 8 8 7 8 8 8 8 8 8 8 8 7 7 7 7 8 8 8 8 8 7 7 7 7 7 6
14 14 14 14 14 14 14 14 14 14 15 15 15 15 15 14 14 13 12 12 12 12 12 11 11 11 11 11 11 11 11 11 10 10 10 9 9 9 8 8 8 8 8 8 7 8 8 8 8 8 7 7 7 7 7 7 7 7 8 8 8 8 7 7 7 7 7 7 6
15 15 14 14 14 14 14 14 14 14 14 14 15 15 15 14 14 13 12 12 12 12 12 12 12 11 11 10 10 10 10 10 10 10 10 9 9 8 8 8 8 8 8 7 7 8 8 8 8 7 7 7 7 7 7 7 7 7 7 7 7 7 7 7 7 7 7 6 6
15 15 15 15 14 14 14 14 14 13 14 14 14 14 14 14 13 13 13 12 12 12 13 13 12 12 11 11 10 10 10 10 10 10 9 9 9 9 8 8 8 7 7 7 8 8 8 8 8 7 7 7 7 7 7 7 7 7 7 7 7 7 7 7 7 7 6 6 6
16 15 15 15 15 15 15 14 14 14 13 13 13 13 13 13 13 13 13 12 12 12 13 13 13 12 12 11 11 10 10 10 10 9 9 9 9 9 8 8 8 7 7 7 8 8 8 8 8 8 7 7 7 7 7 7 7 7 7 7 7 7 7 7 7 7 6 6 6
16 16 16 16 15 15 15 15 15 14 14 13 13 13 13 12 12 12 12 12 12 12 12 13 13 13 13 12 11 11 10 10 10 9 9 9 9 8 8 8 8 7 8 8 8 8 8 8 8 8 8 7 7 7 7 7 7 7 7 7 7 7 7 7 6 6 6 6 5
16 16 16 16 16 16 16 15 15 14 14 13 13 13 13 12 12 12 12 12 12 12 12 12 13 13 13 12 12 11 10 10 10 9 9 9 8 8 8 8 8 8 8 8 8 8 8 8 8 8 8 8 7 7 7 7 7 7 7 7 7 7 7 6 6 6 6 5 5
16 16 16 16 16 16 16 15 15 15 14 14 13 13 13 13 13 12 12 12 12 12 12 12 13 13 13 12 12 11 11 10 10 9 9 9 8 8 8 7 7 8 8 8 8 8 8 8 8 8 8 8 8 8 7 7 7 7 7 7 7 6 6 6 6 6 5 5 5
16 16 16 16 16 15 15 15 15 15 14 14 14 13 13 13 13 12 12 12 12 12 12 12 12 13 13 12 12 11 11 10 10 9 9 8 8 8 8 8 8 8 8 8 8 8 8 8 8 8 8 8 8 8 8 7 7 7 6 6 6 6 6 6 6 6 5 5 4
16 15 15 15 15 15 15 15 15 14 14 14 14 14 13 13 13 12 12 12 12 11 12 12 12 12 12 12 11 11 10 10 10 9 8 8 8 8 8 8 8 8 8 8 8 8 8 8 8 8 8 8 8 8 8 7 7 6 6 6 6 6 6 6 6 5 5 5 4
16 15 15 15 15 15 15 15 15 14 14 14 14 14 13 13 13 13 12 12 12 11 11 11 12 12 11 11 11 10 10 10 9 8 8 8 8 8 8 8 8 8 8 8 8 8 8 8 8 8 8 8 8 8 7 7 7 6 6 6 6 6 6 5 5 5 5 4 4
16 16 15 15 15 15 15 15 15 14 14 14 14 14 13 13 13 13 12 12 12 11 11 11 11 11 11 11 10 10 9 9 8 8 8 8 8 8 8 8 8 8 8 8 8 9 9 8 8 8 8 8 8 7 7 7 6 6 6 5 5 5 5 5 5 5 4 4 4
16 16 15 15 15 15 15 15 15 15 14 14 14 14 14 13 13 13 13 12 12 12 11 11 11 11 11 11 10 10 9 8 8 8 8 8 8 8 8 8 8 8 8 8 9 9 9 8 8 8 8 8 7 7 7 6 6 6 5 5 5 5 5 5 4 4 4 4 4
17 17 16 16 16 16 15 15 15 15 15 15 14 14 14 13 13 13 13 12 12 12 12 11 11 11 11 10 10 9 8 8 8 8 8 8 9 9 8 8 8 8 8 8 8 9 8 8 8 8 7 7 7 7 6 6 6 5 5 5 5 5 4 4 4 4 4 4 4
18 17 17 17 16 16 16 16 16 16 15 15 15 14 14 14 13 13 13 12 12 12 11 11 11 11 10 10 9 8 8 8 8 8 8 9 9 8 8 8 8 8 8 8 8 8 8 8 8 7 7 7 7 6 6 6 5 5 5 5 4 4 4 4 4 4 4 4 4
18 18 17 17 17 17 17 17 16 16 16 15 15 14 14 14 14 13 13 12 12 11 11 11 11 10 9 9 8 8 8 8 8 8 8 8 8 8 7 7 7 8 8 8 8 8 8 8 7 7 7 7 6 6 6 6 5 5 5 4 4 4 4 4 4 4 4 4 4
Height
1485 1486 1487 1487 1488 1489 1489 1490 1491 1492 1493 1494 1495 1496 1497 1498 1499 1500 1501 1502 1503 1504 1505 1506 1507 1508 1510 1511 1512 1513 1514 1515 1516 1517 1517 1518 1519 1520 1521 1522 1522 1523 1524 1525 1526 1526 1527 1528 1528 1529 1530 1530 1531 1532 1533 1534 1534 1535 1535 1535 1535 1536 1536 1536 1537 1537 1537 1537 1537
1483 1484 1485 1486 1486 1487 1488 1489 1490 1490 1491 1492 1493 1494 1496 1497 1498 1499 1500 1501 1502 1502 1504 1505 1506 1507 1508 1509 1510 1511 1512 1513 1514 1515 1516 1516 1517 1518 1519 1520 1520 1521 1522 1523 1524 1524 1525 1526 1527 1527 1528 1528 1529 1530 1531 1532 1532 1532 1532 1533 1533 1533 1533 1534 1534 1535 1535 1536 1536
1481 1482 1483 1484 1485 1485 1486 1487 1488 1489 1490 1491 1492 1493 1494 1495 1496 1497 1498 1499 1500 1501 1502 1503 1504 1505 1506 1507 1508 1509 1511 1511 1512 1513 1514 1514 1515 1516 1517 1517 1518 1519 1520 1521 1522 1523 1523 1524 1525 1525 1526 1527 1527 1528 1529 1530 1530 1530 1530 1530 1531 1531 1531 1532 1532 1533 1534 1534 1534
1479 1480 1481 1482 1482 1483 1484 1485 1486 1487 1488 1489 1490 1492 1492 1493 1494 1495 1497 1497 1498 1499 1500 1501 1502 1503 1504 1506 1507 1507 1508 1509 1510 1511 1512 1512 1513 1514 1515 1516 1516 1517 1518 1519 1520 1521 1522 1522 1523 1524 1524 1525 1525 1526 1527 1527 1527 1527 1527 1528 1528 1529 1529 1530 1531 1532 1532 1533 1533
1477 1478 1479 1480 1480 1481 1482 1483 1485 1486 1487 1488 1489 1490 1491 1492 1492 1493 1494 1495 1496 1497 1498 1499 1500 1502 1502 1503 1504 1505 1507 1507 1508 1509 1509 1510 1511 1512 1513 1513 1514 1515 1516 1517 1518 1519 1520 1521 1521 1522 1522 1523 1523 1524 1524 1525 1525 1525 1525 1526 1526 1527 1527 1528 1529 1530 1531 1531 1531
1475 1476 1477 1478 1479 1480 1481 1482 1483 1484 1485 1487 1487 1488 1488 1489 1490 1491 1492 1493 1494 1495 1496 1497 1498 1499 1500 1501 1502 1503 1504 1505 1506 1507 1507 1508 1509 1510 1511 1512 1512 1513 1514 1515 1516 1517 1518 1519 1519 1520 1520 1520 1521 1521 1522 1522 1522 1523 1523 1524 1524 1525 1526 1527 1527 1528 1529 1529 1529
1474 1475 1476 1477 1477 1478 1479 1481 1482 1483 1484 1485 1485 1486 1486 1487 1488 1489 1490 1491 1492 1493 1494 1495 1496 1497 1498 1499 1499 1500 1501 1502 1503 1504 1505 1506 1507 1508 1509 1510 1511 1511 1512 1513 1514 1515 1516 1516 1517 1517 1517 1518 1518 1519 1519 1520 1520 1521 1521 1522 1522 1523 1525 1525 1526 1527 1527 1527 1527
1472 1473 1474 1475 1476 1477 1478 1479 1480 1481 1482 1482 1483 1483 1484 1486 1487 1487 1488 1489 1490 1491 1492 1493 1494 1495 1496 1497 1497 1498 1499 1500 1501 1502 1502 1504 1505 1506 1507 1507 1508 1509 1510 1511 1512 1512 1513 1514 1514 1515 1515 1515 1516 1516 1517 1517 1518 1519 1519 1520 1521 1522 1523 1524 1525 1526 1526 1526 1526
1471 1472 1473 1474 1475 1476 1477 1477 1479 1479 1480 1480 1481 1482 1483 1484 1485 1486 1487 1488 1488 1490 1490 1491 1492 1492 1494 1494 1495 1496 1497 1497 1498 1499 1501 1502 1502 1503 1504 1505 1506 1507 1507 1508 1509 1510 1510 1511 1512 1512 1512 1513 1513 1514 1514 1515 1516 1517 1518 1519 1520 1522 1522 1523 1524 1525 1525 1525 1524
1469 1470 1471 1472 1473 1474 1475 1476 1477 1477 1478 1478 1479 1480 1481 1482 1483 1484 1485 1486 1487 1488 1489 1489 1490 1491 1492 1492 1493 1494 1495 1496 1497 1497 1498 1499 1500 1501 1502 1502 1503 1504 1505 1506 1506 1507 1507 1508 1509 1509 1510 1511 1511 1512 1512 1513 1515 1516 1517 1518 1520 1521 1521 1522 1522 1523 1523 1523 1522
1468 1469 1470 1471 1472 1473 1474 1475 1475 1476 1476 1477 1477 1478 1480 1481 1482 1482 1484 1485 1486 1486 1487 1487 1488 1489 1489 1490 1491 1492 1493 1494 1495 1496 1496 1497 1497 1498 1499 1500 1501 1501 1502 1503 1503 1504 1505 1505 1506 1507 1507 1508 1509 1510 1511 1512 1513 1515 1516 1517 1519 1519 1519 1520 1520 1521 1521 1521 1521
1467 1468 1469 1469 1471 1472 1472 1473 1473 1474 1474 1475 1476 1477 1478 1479 1480 1481 1482 1483 1484 1484 1485 1486 1487 1487 1487 1488 1489 1490 1491 1492 1492 1493 1494 1495 1495 1496 1497 1497 1498 1499 1499 1500 1501 1501 1502 1502 1503 1504 1505 1506 1507 1508 1509 1511 1512 1514 1515 1516 1517 1517 1517 1517 1518 1518 1518 1518 1519
1465 1466 1467 1468 1469 1470 1471 1472 1472 1472 1473 1473 1474 1475 1476 1477 1478 1479 1480 1481 1482 1482 1483 1484 1484 1485 1486 1486 1487 1488 1489 1489 1490 1491 1492 1492 1493 1493 1494 1495 1496 1496 1497 1498 1498 1499 1499 1500 1500 1501 1502 1503 1505 1506 1507 1509 1511 1512 1513 1513 1514 1515 1516 1516 1516 1517 1517 1517 1517
1463 1464 1465 1466 1467 1468 1469 1470 1470 1471 1471 1472 1472 1473 1474 1475 1476 1477 1478 1479 1479 1480 1481 1482 1482 1483 1483 1484 1485 1486 1486 1487 1487 1488 1489 1490 1490 1491 1492 1492 1493 1494 1495 1495 1496 1497 1497 1497 1498 1498 1499 1501 1502 1504 1505 1506 1508 1509 1510 1511 1512 1512 1514 1514 1515 1515 1515 1515 1515
1461 1462 1463 1464 1465 1466 1467 1467 1468 1469 1469 1470 1471 1472 1472 1473 1474 1475 1476 1476 1477 1478 1479 1479 1480 1480 1481 1482 1482 1483 1484 1484 1485 1486 1486 1487 1488 1488 1489 1490 1491 1492 1492 1493 1494 1495 1495 1496 1496 1496 1497 1498 1499 1501 1502 1503 1504 1506 1507 1508 1509 1510 1511 1511 1512 1512 1512 1512 1512
1458 1459 1460 1461 1462 1463 1464 1465 1466 1466 1467 1468 1469 1470 1471 1472 1472 1473 1473 1474 1474 1475 1476 1477 1477 1478 1479 1479 1480 1481 1481 1482 1482 1483 1483 1484 1485 1486 1487 1487 1488 1489 1491 1492 1492 1493 1493 1493 1494 1494 1495 1495 1496 1497 1497 1499 1500 1502 1504 1505 1506 1507 1507 1507 1508 1508 1509 1509 1509
1455 1456 1457 1458 1459 1460 1461 1462 1463 1464 1465 1466 1467 1467 1468 1469 1470 1470 1471 1471 1472 1473 1473 1474 1475 1476 1477 1477 1477 1478 1478 1479 1479 1480 1481 1481 1482 1483 1484 1485 1486 1487 1489 1490 1490 1491 1491 1491 1492 1492 1493 1493 1493 1493 1494 1495 1497 1498 1500 1502 1502 1503 1503 1503 1504 1504 1505 1506 1506
1452 1452 1453 1455 1456 1457 1459 1461 1462 1462 1463 1464 1465 1466 1466 1467 1467 1467 1468 1468 1469 1470 1471 1472 1473 1473 1474 1474 1475 1475 1476 1476 1477 1477 1478 1479 1480 1481 1482 1483 1484 1485 1486 1487 1487 1488 1488 1488 1489 1489 1490 1490 1491 1491 1492 1492 1494 1495 1496 1498 1499 1499 1500 1500 1500 1501 1501 1502 1502
1449 1450 1451 1451 1452 1453 1455 1458 1460 1461 1462 1463 1463 1463 1463 1463 1463 1464 1464 1465 1466 1467 1468 1469 1470 1471 1471 1472 1472 1473 1473 1474 1474 1475 1476 1477 1477 1478 1479 1480 1481 1482 1483 1483 1484 1484 1485 1486 1486 1486 1487 1487 1488 1490 1490 1491 1492 1492 1493 1494 1495 1496 1497 1497 1497 1497 1498 1498 1499
1447 1447 1448 1448 1449 1450 1451 1453 1455 1457 1458 1460 1462 1462 1461 1461 1461 1461 1461 1461 1462 1464 1465 1466 1467 1468 1469 1469 1470 1471 1471 1472 1472 1473 1473 1474 1475 1475 1476 1477 1478 1479 1480 1480 1481 1482 1482 1482 1482 1483 1483 1485 1486 1487 1489 1489 1490 1491 1491 1492 1492 1493 1493 1494 1494 1494 1494 1495 1495
1443 1444 1445 1445 1446 1447 1448 1450 1451 1452 1453 1454 1456 1457 1457 1457 1457 1458 1458 1459 1461 1462 1462 1463 1464 1465 1466 1467 1468 1468 1469 1469 1470 1470 1471 1471 1472 1472 1473 1474 1475 1476 1477 1477 1478 1479 1479 1479 1479 1480 1481 1482 1484 1485 1486 1487 1488 1489 1489 1489 1489 1490 1490 1490 1491 1491 1491 1491 1492
1440 1441 1442 1442 1443 1444 1446 1447 1449 1450 1451 1451 1452 1452 1453 1454 1454 1455 1455 1457 1458 1459 1460 1460 1461 1462 1464 1464 1465 1465 1466 1466 1467 1467 1467 1468 1468 1469 1470 1471 1472 1473 1474 1474 1475 1475 1476 1476 1477 1478 1480 1481 1482 1483 1484 1484 1485 1486 1487 1487 1487 1487 1487 1487 1487 1487 1487 1487 1488
1436 1437 1439 1440 1441 1442 1443 1445 1446 1448 1449 1450 1450 1451 1452 1452 1452 1453 1453 1455 1456 1457 1457 1459 1460 1462 1462 1462 1462 1462 1462 1463 1464 1464 1465 1465 1466 1466 1467 1468 1469 1470 1471 1471 1472 1472 1473 1474 1476 1477 1479 1479 1479 1479 1479 1479 1480 1482 1483 1484 1485 1485 1485 1485 1485 1485 1484 1484 1485
1433 1435 1436 1437 1439 1440 1441 1442 1443 1445 1446 1447 1447 1448 1449 1450 1450 1451 1451 1452 1453 1454 1456 1457 1458 1459 1460 1460 1460 1459 1460 1461 1461 1462 1462 1462 1463 1464 1465 1466 1467 1467 1468 1468 1468 1470 1472 1474 1476 1477 1477 1477 1476 1475 1475 1475 1476 1478 1480 1481 1481 1482 1482 1482 1482 1481 1481 1482 1482
1430 1432 1433 1435 1436 1437 1438 1439 1440 1441 1442 1443 1444 1445 1446 1447 1448 1448 1448 1449 1450 1452 1454 1456 1457 1457 1457 1457 1457 1457 1457 1458 1459 1459 1460 1461 1462 1462 1464 1464 1465 1466 1466 1466 1467 1469 1471 1473 1475 1475 1474 1473 1472 1472 1472 1472 1473 1475 1476 1477 1478 1478 1478 1478 1478 1478 1478 1479 1480
1427 1429 1430 1431 1432 1433 1434 1435 1436 1437 1438 1439 1441 1442 1443 1444 1445 1446 1446 1446 1447 1449 1451 1453 1455 1455 1455 1454 1454 1455 1455 1456 1456 1457 1457 1459 1460 1462 1462 1463 1464 1464 1464 1465 1466 1468 1471 1473 1473 1472 1471 1470 1470 1470 1470 1471 1472 1472 1473 1474 1475 1475 1475 1475 1475 1476 1476 1477 1477
1425 1426 1427 1428 1429 1430 1431 1431 1432 1433 1434 1436 1437 1439 1440 1442 1442 1443 1443 1444 1444 1446 1447 1449 1452 1453 1453 1452 1452 1452 1452 1452 1453 1454 1456 1457 1459 1459 1460 1460 1461 1462 1462 1463 1466 1468 1471 1471 1470 1470 1470 1470 1469 1469 1469 1469 1470 1471 1471 1472 1472 1472 1472 1473 1473 1474 1474 1475 1475
1422 1423 1424 1425 1426 1427 1427 1428 1429 1430 1431 1432 1434 1436 1437 1439 1440 1441 1441 1442 1442 1443 1444 1446 1448 1449 1450 1449 1449 1448 1449 1450 1451 1452 1453 1454 1456 1456 1457 1457 1458 1460 1461 1463 1466 1468 1469 1469 1468 1469 1469 1469 1468 1468 1468 1468 1468 1468 1469 1469 1469 1470 1471 1471 1472 1472 1472 1473 1473
1420 1420 1421 1422 1422 1423 1424 1425 1426 1427 1427 1429 1431 1433 1435 1437 1438 1439 1439 1439 1440 1441 1442 1443 1444 1445 1446 1447 1446 1446 1447 1448 1449 1449 1450 1451 1452 1453 1455 1456 1457 1459 1461 1463 1465 1467 1467 1467 1467 1467 1467 1467 1467 1467 1467 1466 1466 1467 1467 1467 1467 1468 1469 1469 1470 1470 1471 1471 1472
1417 1418 1418 1418 1419 1420 1421 1422 1422 1423 1425 1427 1429 1431 1433 1434 1435 1436 1437 1437 1437 1438 1439 1441 1442 1442 1443 1443 1443 1444 1445 1445 1446 1447 1447 1447 1448 1450 1453 1455 1457 1459 1461 1463 1464 1465 1465 1465 1465 1465 1465 1465 1465 1465 1465 1464 1464 1464 1465 1465 1466 1466 1467 1467 1468 1468 1468 1469 1469
1415 1415 1415 1415 1416 1416 1417 1418 1419 1421 1423 1426 1427 1429 1430 1432 1432 1432 1433 1434 1435 1436 1438 1439 1440 1440 1440 1441 1441 1442 1442 1443 1443 1443 1444 1445 1446 1448 1451 1453 1455 1458 1460 1462 1462 1463 1463 1463 1462 1462 1463 1463 1463 1463 1462 1462 1462 1462 1463 1463 1464 1464 1465 1465 1466 1466 1467 1467 1467
1413 1413 1413 1413 1413 1413 1414 1415 1417 1420 1422 1424 1426 1427 1427 1428 1429 1430 1431 1432 1434 1435 1436 1437 1437 1438 1438 1438 1439 1439 1440 1440 1440 1441 1441 1443 1445 1447 1449 1451 1454 1456 1457 1459 1459 1460 1461 1461 1461 1461 1461 1461 1461 1461 1461 1460 1460 1460 1461 1461 1462 1462 1462 1463 1463 1464 1465 1465 1466
1412 1412 1412 1412 1411 1412 1412 1414 1416 1418 1421 1422 1423 1424 1424 1425 1426 1427 1429 1431 1432 1433 1433 1434 1434 1435 1436 1436 1436 1437 1437 1437 1438 1438 1440 1441 1443 1446 1448 1450 1452 1454 1455 1456 1456 1457 1458 1459 1459 1459 1459 1459 1459 1459 1459 1458 1458 1458 1458 1458 1459 1460 1461 1461 1462 1462 1463 1464 1464
1410 1410 1410 1410 1410 1411 1412 1413 1415 1417 1419 1420 1421 1422 1422 1423 1424 1426 1427 1428 1430 1430 1431 1431 1432 1433 1433 1433 1434 1434 1435 1435 1436 1437 1438 1440 1442 1445 1447 1450 1451 1452 1452 1453 1454 1455 1456 1457 1457 1457 1457 1457 1457 1457 1457 1457 1456 1456 1456 1456 1457 1458 1459 1459 1460 1461 1462 1462 1462
1409 1409 1409 1409 1410 1410 1412 1413 1414 1415 1417 1418 1419 1420 1421 1421 1422 1424 1425 1427 1428 1428 1429 1429 1430 1431 1432 1432 1432 1433 1433 1433 1434 1436 1437 1439 1442 1444 1446 1447 1448 1449 1450 1451 1452 1452 1453 1454 1455 1455 1455 1455 1455 1455 1454 1454 1454 1454 1454 1455 1455 1456 1457 1458 1458 1459 1460 1460 1461
1407 1408 1408 1408 1409 1410 1410 1411 1412 1413 1415 1416 1417 1418 1419 1420 1421 1422 1424 1425 1426 1427 1427 1427 1428 1429 1429 1430 1430 1431 1431 1432 1433 1435 1437 1438 1440 1442 1443 1444 1445 1446 1447 1448 1449 1450 1451 1452 1452 1452 1452 1453 1452 1452 1452 1452 1452 1452 1452 1453 1453 1454 1455 1456 1457 1457 1458 1458 1459
1406 1406 1407 1407 1408 1408 1409 1410 1411 1412 1413 1414 1415 1417 1418 1419 1420 1421 1422 1423 1424 1424 1424 1425 1425 1426 1427 1428 1428 1429 1430 1431 1433 1435 1436 1438 1439 1440 1440 1441 1442 1442 1444 1445 1446 1447 1448 1449 1450 1450 1450 1450 1450 1450 1450 1450 1451 1451 1451 1451 1452 1452 1453 1454 1455 1456 1456 1457 1457
1404 1404 1405 1406 1406 1407 1407 1408 1409 1410 1412 1412 1414 1415 1416 1417 1418 1419 1420 1420 1421 1422 1422 1422 1423 1425 1426 1427 1427 1428 1430 1431 1433 1435 1436 1437 1438 1438 1438 1438 1439 1440 1441 1442 1443 1444 1445 1446 1447 1447 1448 1448 1448 1448 1448 1448 1449 1449 1449 1450 1450 1451 1452 1452 1453 1453 1454 1455 1455
1402 1403 1403 1404 1405 1406 1407 1407 1408 1409 1410 1411 1412 1413 1414 1415 1416 1417 1417 1418 1419 1419 1420 1421 1422 1424 1426 1426 1427 1428 1429 1431 1433 1434 1436 1437 1437 1437 1437 1437 1437 1438 1439 1440 1441 1442 1442 1443 1444 1445 1445 1446 1446 1446 1447 1447 1447 1447 1447 1448 1448 1449 1449 1450 1451 1452 1452 1452 1453
1401 1402 1402 1403 1404 1405 1406 1406 1407 1407 1408 1409 1410 1411 1412 1414 1415 1416 1416 1417 1418 1419 1419 1420 1422 1423 1424 1425 1426 1427 1429 1431 1432 1434 1435 1435 1435 1434 1435 1436 1436 1437 1437 1438 1438 1439 1440 1441 1442 1442 1443 1444 1444 1444 1445 1445 1445 1445 1446 1446 1446 1447 1447 1448 1449 1449 1450 1451 1451
1400 1401 1402 1402 1403 1404 1405 1405 1406 1407 1407 1408 1409 1410 1412 1413 1414 1415 1416 1417 1417 1418 1419 1420 1421 1422 1424 1425 1427 1428 1429 1430 1431 1432 1432 1432 1432 1433 1433 1434 1435 1435 1435 1435 1436 1437 1438 1439 1439 1440 1441 1442 1442 1442 1443 1443 1443 1443 1443 1443 1444 1444 1445 1446 1447 1447 1448 1448 1449
Wind_Speed
28 27 26 25 25 25 26 26 27 28 29 29 30 30 31 31 32 32 32 33 33 33 33 33 33 33 33 34 34 35 35 35 35 35 35 35 35 34 34 34 35 35 35 35 34 34 34 33 33 33 33 33 33 32 32 33 34 34 35 35 35 34 34 33 33 32 31 31 30
29 28 27 26 26 25 26 27 27 28 29 29 30 30 30 31 31 31 31 32 32 32 32 32 33 33 33 33 34 34 34 34 35 35 35 35 35 34 34 35 35 35 35 35 35 35 34 34 34 34 34 34 33 33 33 33 34 35 36 36 36 36 35 35 34 33 32 32 31
30 29 28 28 27 27 27 28 29 29 29 30 30 30 31 31 31 31 32 32 32 32 32 33 33 33 33 33 33 33 34 34 34 35 35 35 35 35 35 35 35 35 35 35 35 35 35 35 35 34 34 34 34 33 33 34 35 36 37 38 38 37 37 36 35 34 33 33 33
32 31 30 30 30 30 29 29 30 30 30 30 31 31 31 32 32 32 32 32 33 33 33 33 33 33 33 33 33 33 33 34 34 35 35 35 35 35 35 35 35 35 35 35 35 35 35 35 35 35 35 35 34 34 34 35 36 37 38 39 39 39 38 37 36 35 34 34 34
33 33 33 32 32 32 31 31 31 31 31 31 32 32 33 33 33 33 33 34 34 34 33 33 33 33 33 33 33 33 33 34 34 35 35 36 36 36 36 36 35 35 35 35 35 35 35 35 35 35 35 35 35 35 35 36 37 38 39 39 40 39 39 38 37 36 35 35 35
35 35 35 34 34 34 33 33 32 32 32 32 33 34 34 34 34 34 34 34 34 33 33 33 33 33 33 34 34 34 34 34 34 34 35 35 36 36 36 36 36 36 35 35 35 35 36 36 36 36 36 36 36 36 37 38 38 39 40 40 40 40 39 38 37 36 36 36 36
36 36 36 36 36 36 35 35 34 34 34 34 35 35 35 35 35 35 34 34 33 33 34 34 34 34 34 34 34 34 34 34 34 34 34 35 35 36 36 36 36 36 36 36 36 36 36 36 36 37 37 37 38 38 39 39 40 40 40 40 40 40 39 38 37 36 36 37 37
38 37 37 37 37 37 37 37 36 36 36 37 37 37 36 36 35 35 35 34 34 34 34 35 35 34 34 34 35 34 34 34 34 33 33 34 34 35 35 36 36 36 36 36 36 36 37 37 37 38 38 39 39 39 40 40 40 41 41 40 40 39 37 36 36 36 37 38 38
39 39 39 39 39 39 39 38 38 38 38 39 39 38 37 37 36 36 36 36 36 36 36 36 36 36 35 35 35 35 34 34 34 33 33 33 34 34 34 35 35 35 36 36 36 37 37 38 38 39 39 40 40 41 41 41 41 41 40 39 38 37 36 35 35 36 37 38 39
40 40 40 40 40 40 40 39 40 40 40 40 40 40 39 38 38 38 38 37 37 37 38 38 38 37 37 37 36 36 35 34 34 34 34 34 34 34 34 34 34 34 35 35 36 37 37 38 39 39 40 40 41 42 42 41 41 40 39 38 36 36 35 35 35 36 38 39 39
42 42 41 41 41 41 40 40 41 41 41 42 42 41 41 40 40 40 39 39 39 40 40 39 39 39 39 38 37 37 36 35 35 34 34 34 34 34 33 33 33 33 33 34 35 36 37 38 38 39 40 41 42 42 42 41 40 39 38 37 36 36 36 36 37 37 38 39 38
43 43 43 42 42 42 41 41 42 42 43 43 43 43 42 42 42 41 41 41 41 41 41 40 40 40 40 39 39 38 37 37 36 36 35 35 35 34 34 33 33 33 33 33 33 34 35 36 37 38 39 40 41 41 41 40 39 38 37 36 36 36 36 37 38 38 38 37 36
43 43 43 43 43 43 43 43 43 43 44 44 44 44 44 44 43 42 42 43 43 42 42 42 41 41 41 41 40 40 39 39 38 37 37 36 36 36 35 34 34 33 33 32 33 33 34 35 36 37 38 38 39 39 39 39 39 38 37 36 36 36 37 38 39 39 38 37 37
43 43 44 44 44 44 44 44 44 45 45 45 46 46 46 45 44 44 44 44 44 43 43 42 42 42 42 42 41 41 41 40 40 39 39 38 38 37 37 36 36 35 34 34 33 33 34 34 35 36 37 37 36 37 37 37 37 37 37 36 36 36 37 38 40 40 40 39 38
43 44 44 45 45 45 45 46 46 46 46 47 47 47 47 46 46 45 45 45 45 44 43 43 43 43 43 43 43 42 42 42 42 41 41 40 40 40 39 39 38 37 36 35 35 35 34 35 36 36 36 36 36 36 37 37 37 37 36 36 37 38 38 39 40 41 41 41 40
43 43 44 45 46 47 47 47 47 47 47 48 48 48 48 48 47 47 47 46 45 45 44 44 44 44 44 44 44 44 44 43 43 43 43 42 42 42 41 41 40 39 37 37 36 36 36 36 36 36 37 37 37 37 38 39 39 38 37 37 38 39 39 39 39 41 42 42 41
43 43 44 45 46 47 47 47 47 47 48 48 49 49 49 49 48 48 48 47 46 45 45 44 44 44 44 45 45 45 45 45 45 45 44 44 44 43 43 42 41 39 38 37 37 37 38 37 37 37 37 38 38 38 38 38 39 39 39 37 37 38 38 38 38 39 41 42 42
45 45 45 45 46 45 45 45 45 45 45 46 47 47 48 48 48 48 48 48 48 47 46 45 45 45 45 45 45 46 46 46 46 46 46 45 45 44 44 42 40 39 39 39 38 39 39 39 38 38 38 38 38 37 37 38 38 38 38 37 37 37 37 37 38 38 40 41 42
47 47 47 47 46 45 43 41 40 39 39 39 40 40 41 42 43 44 45 46 46 47 47 46 46 45 45 45 45 45 46 46 46 46 46 46 45 45 44 43 42 41 40 40 40 40 39 39 39 38 37 37 36 36 37 37 37 37 37 37 37 37 37 37 37 38 39 40 42
48 49 49 48 48 46 44 41 39 36 35 34 33 34 34 35 37 39 41 43 43 44 44 45 45 45 45 45 45 45 45 45 45 45 45 45 46 46 45 44 43 42 42 41 40 40 39 39 39 38 38 37 37 36 35 36 37 38 38 37 37 37 37 37 37 38 39 40 42
49 49 50 49 49 48 46 44 42 40 38 37 36 35 35 35 37 38 40 40 40 41 42 43 44 44 44 44 44 44 44 44 44 44 44 45 45 45 45 44 43 43 42 41 40 39 39 39 39 39 40 40 40 38 36 36 36 38 38 38 38 37 36 36 37 38 39 40 41
49 50 50 50 50 50 49 47 45 43 42 40 39 37 37 38 40 41 41 40 39 40 40 40 40 40 40 41 42 43 43 43 43 43 43 44 44 44 44 43 42 42 41 41 40 40 40 40 39 39 39 39 40 40 40 39 38 37 38 37 36 34 34 34 36 38 40 41 41
50 50 51 51 51 51 51 50 49 47 45 43 41 40 39 40 41 42 42 42 42 41 40 38 36 35 36 38 41 43 43 43 43 43 43 43 43 43 42 42 41 41 41 41 41 41 41 40 38 36 36 37 39 41 43 43 41 38 37 36 35 33 32 33 36 39 42 43 43
51 51 51 51 52 52 52 52 51 51 49 48 46 44 43 43 44 44 45 45 44 43 41 39 37 36 36 38 41 43 44 43 43 42 42 42 42 41 40 40 40 40 41 41 41 41 39 36 34 35 37 38 40 41 42 43 41 38 36 35 34 33 33 35 38 41 44 44 43
52 52 52 52 52 52 53 53 53 53 53 52 50 49 48 47 47 47 48 47 46 44 41 39 39 40 41 42 43 44 44 43 43 42 42 42 40 39 38 38 38 39 39 40 39 37 34 33 35 39 42 43 42 41 40 39 37 36 35 35 35 35 36 39 41 43 43 43 42
52 53 53 53 53 53 54 54 55 55 55 54 54 53 52 51 51 50 50 49 48 46 43 40 39 41 43 44 44 44 44 43 43 43 42 40 38 37 37 38 38 38 39 39 37 35 35 37 40 43 44 43 41 39 38 35 34 34 35 35 36 37 39 41 42 42 42 42 41
52 53 54 54 54 54 54 55 55 56 55 55 55 55 54 54 53 52 51 50 50 49 46 41 40 41 44 45 45 45 45 44 43 43 42 40 39 39 40 41 41 41 41 39 35 35 37 38 40 40 40 39 38 37 36 34 34 34 35 37 38 39 40 40 40 40 40 40 40
51 52 53 54 55 55 55 55 55 55 56 56 55 55 55 55 54 53 51 51 51 50 48 45 42 41 43 45 46 46 45 45 44 43 42 42 41 41 41 42 42 41 40 37 34 33 35 36 37 37 36 35 36 36 36 36 36 36 37 37 38 38 38 38 38 38 39 39 39
50 51 52 53 55 56 56 56 56 56 56 55 55 54 54 54 54 53 52 52 52 52 51 48 45 43 43 45 46 46 45 44 43 43 43 43 43 42 41 40 39 37 35 32 31 32 34 35 35 34 33 33 34 35 37 38 38 38 38 38 37 37 36 36 37 37 37 38 38
49 50 51 52 54 55 56 57 56 56 55 54 53 52 51 51 52 52 52 52 52 53 52 51 49 47 46 46 47 46 45 44 43 43 43 43 43 42 41 39 37 34 31 29 29 31 34 35 35 34 32 31 32 34 37 38 39 39 39 38 37 36 36 36 37 37 37 37 37
50 50 51 52 53 54 55 56 56 55 53 51 50 49 49 49 50 51 52 52 52 52 52 51 50 49 49 48 48 47 46 45 44 43 43 43 42 41 39 37 36 34 32 29 28 30 33 36 36 34 31 30 30 32 35 37 38 38 38 38 37 37 37 37 37 37 37 36 36
49 50 51 52 52 53 54 54 55 54 53 51 49 49 49 48 49 50 50 50 50 50 50 51 51 51 51 50 49 48 46 45 45 44 43 42 40 38 36 35 35 35 32 27 25 26 29 33 34 33 31 28 28 29 32 34 35 36 37 37 37 37 37 37 37 36 35 34 35
47 48 50 51 52 52 53 53 53 53 53 52 51 50 50 49 49 48 48 47 47 48 49 50 51 52 52 52 50 49 47 46 45 44 42 41 38 36 34 33 32 31 28 25 23 24 27 31 32 32 30 28 27 28 29 31 33 35 36 37 37 37 37 37 36 34 33 33 33
45 46 48 49 50 50 50 50 50 50 51 52 52 52 52 51 49 47 46 45 45 46 47 49 50 52 52 52 51 49 47 46 44 42 40 38 36 34 32 31 30 29 26 24 23 24 27 29 31 31 30 28 28 28 30 31 33 35 36 36 36 36 36 35 34 32 32 32 33
44 44 45 46 46 46 47 47 47 48 49 50 52 52 52 51 50 47 46 44 44 44 46 47 48 50 50 50 49 47 46 44 42 40 37 34 31 29 30 32 31 29 26 25 25 25 27 29 31 31 31 30 30 30 31 31 33 34 35 35 36 35 34 33 32 31 31 32 32
40 42 43 43 43 43 43 44 44 45 46 47 49 51 52 51 50 48 46 44 43 43 44 46 47 48 48 47 46 45 43 41 39 37 34 30 27 27 30 32 29 27 25 25 25 26 27 29 30 30 31 31 31 31 31 31 32 33 34 34 34 33 32 31 31 31 31 32 32
35 38 40 41 41 41 41 41 42 42 43 44 46 48 50 51 50 48 46 44 43 43 44 46 46 46 46 45 44 42 40 38 35 33 30 27 26 28 30 29 27 26 25 25 25 25 26 27 29 29 30 30 30 30 31 31 31 32 32 32 32 32 31 31 31 32 32 32 32
28 33 36 38 40 40 41 41 40 40 41 42 43 45 47 49 49 49 47 46 45 44 45 45 45 44 43 42 41 39 37 35 32 29 27 26 28 30 29 28 26 25 25 25 26 26 27 27 28 28 28 28 29 29 30 30 30 30 30 30 30 31 31 32 32 33 33 32 31
20 24 28 31 34 35 36 37 38 39 40 40 41 43 45 46 48 49 48 48 46 45 45 44 43 42 41 40 38 36 33 30 27 25 25 28 33 34 32 28 26 25 25 26 27 27 27 26 26 25 25 25 26 27 28 28 28 28 28 28 29 31 32 32 33 33 33 32 31
11 14 17 20 23 25 27 30 32 34 36 38 39 40 42 44 45 47 47 47 46 45 43 42 41 40 38 37 34 31 27 25 23 24 27 30 33 33 30 26 25 25 26 27 28 27 26 25 24 23 23 24 25 25 26 25 25 26 27 28 29 31 31 32 32 33 33 32 31
5 7 9 12 14 16 19 22 25 28 31 34 36 37 38 40 42 44 45 45 44 43 41 40 38 36 34 31 28 25 23 23 25 28 30 29 28 26 25 24 25 26 28 29 29 28 27 25 24 23 22 23 23 24 24 24 24 25 26 28 29 30 30 31 32 32 32 32 32
Wind_Direction
222 225 228 230 232 233 233 234 234 235 234 233 232 231 230 229 228 228 228 228 229 230 230 231 232 233 234 234 235 236 237 238 239 241 242 243 244 244 245 246 247 247 247 247 247 246 245 244 244 244 243 242 242 242 243 244 245 246 247 247 247 247 248 249 250 252 255 257 259
224 226 229 232 233 234 234 234 234 234 234 234 233 233 232 232 232 232 233 233 233 234 234 235 236 236 237 237 238 238 239 240 241 243 244 245 246 247 247 248 249 249 249 248 248 247 246 245 244 244 244 243 243 242 243 244 245 246 247 247 247 248 248 249 250 252 255 258 259
225 228 230 233 234 235 235 234 234 234 234 234 234 234 235 235 235 236 237 237 238 238 239 239 239 239 240 240 241 241 242 243 244 245 246 247 248 249 250 250 250 250 250 249 248 247 247 246 245 245 245 244 244 243 243 244 245 246 247 247 248 248 249 249 251 253 255 258 259
226 228 231 233 234 235 235 235 235 234 234 234 235 235 236 237 238 239 240 240 241 242 242 242 243 243 243 244 244 245 245 246 246 247 248 250 250 251 252 252 252 252 251 250 249 248 247 247 246 246 246 246 245 245 245 245 246 247 247 248 249 249 249 250 251 253 255 258 260
228 230 232 234 235 237 237 237 237 237 237 237 237 238 238 239 240 241 242 243 244 245 245 246 246 247 247 248 248 248 249 249 249 250 251 251 252 253 253 254 253 253 253 251 250 249 248 247 247 247 247 247 247 246 246 246 247 247 248 249 249 249 250 251 252 253 256 258 260
229 231 233 235 237 239 240 240 240 240 240 240 240 241 241 242 243 244 245 246 247 248 249 250 250 251 251 251 252 252 252 252 252 253 253 253 254 254 254 254 254 254 253 252 251 250 249 248 247 247 247 247 247 247 247 247 247 248 249 249 249 250 250 251 252 254 256 259 261
231 232 234 237 239 240 241 242 242 243 243 244 244 244 244 245 246 248 250 251 253 254 254 254 254 254 254 254 255 255 255 255 255 255 255 255 255 255 255 255 255 254 254 253 252 251 250 248 248 247 248 248 248 248 248 248 248 249 249 250 250 250 251 252 254 255 257 259 261
233 235 236 238 240 241 243 244 244 245 246 246 246 247 248 249 250 252 254 256 257 258 258 258 258 258 257 258 258 259 259 259 258 258 257 257 257 257 256 256 256 255 255 254 253 252 251 249 248 248 248 248 249 249 249 249 250 251 251 251 252 252 252 253 255 257 259 260 262
235 236 238 240 241 242 244 245 246 247 247 248 248 249 251 252 253 255 257 258 260 261 261 261 262 261 261 261 261 261 261 261 261 261 260 260 259 259 258 257 257 256 256 255 254 253 252 251 250 249 249 249 250 250 251 251 252 253 253 254 253 253 253 254 256 258 260 261 261
236 237 239 240 242 243 244 245 247 248 249 249 251 252 253 254 255 256 258 259 261 261 262 262 263 263 263 263 263 263 263 263 263 263 262 262 261 261 260 259 259 258 257 256 255 254 253 252 251 251 250 251 251 252 252 253 254 255 256 256 255 254 254 253 254 256 258 260 261
237 238 240 241 242 244 245 246 247 248 249 251 252 253 254 255 256 257 258 260 261 261 261 262 262 263 263 264 264 264 264 264 264 264 263 263 263 262 262 261 261 260 260 259 258 256 255 255 254 253 252 252 252 253 254 255 256 257 258 259 258 256 255 254 254 254 256 258 261
237 239 241 242 243 244 245 246 247 248 250 251 252 253 254 255 256 257 259 259 260 261 261 261 261 261 262 263 264 264 264 264 264 264 264 264 263 263 263 262 262 262 262 261 260 259 258 258 257 256 255 255 254 254 255 256 258 259 260 261 260 259 258 257 256 256 256 257 259
237 239 240 242 243 244 245 246 247 248 250 251 252 254 255 256 257 258 259 260 260 261 261 260 260 260 260 261 262 263 263 263 264 264 264 263 264 264 264 264 264 264 263 263 262 262 261 262 261 260 259 257 256 256 256 257 259 260 261 261 261 261 261 261 260 260 260 259 260
236 238 239 240 242 243 244 245 247 248 250 251 253 254 256 257 258 259 260 261 261 261 260 260 259 259 259 260 261 261 262 262 263 263 263 263 264 264 265 265 265 264 264 264 263 263 264 265 265 263 261 258 257 258 259 260 260 260 261 260 260 261 262 263 263 263 263 262 262
236 237 238 239 240 241 243 244 246 247 249 251 253 255 257 258 259 260 261 262 262 262 260 259 258 259 259 259 260 260 261 261 262 262 263 263 263 264 264 265 264 264 264 263 264 264 265 266 264 262 260 258 257 258 259 261 261 261 260 260 260 260 261 262 262 263 264 264 263
235 237 238 238 239 240 241 243 244 246 248 250 253 255 257 258 260 261 262 263 263 262 260 259 259 258 258 258 259 259 260 260 261 261 262 262 263 263 264 264 264 263 263 263 264 265 266 265 263 260 259 257 257 256 257 259 260 260 260 259 259 260 260 260 260 261 262 263 264
232 234 236 237 238 239 240 242 243 245 247 249 252 254 256 257 259 260 261 262 263 262 261 260 259 258 258 258 258 258 258 259 260 261 262 262 263 263 263 263 262 262 263 263 264 265 266 265 262 260 258 257 256 256 256 257 258 259 260 259 259 260 260 260 259 259 260 262 264
231 231 233 234 235 236 239 242 244 246 248 250 253 255 257 259 260 261 261 262 262 262 262 262 260 259 258 257 257 257 258 259 260 261 262 263 263 263 262 261 260 261 262 264 264 264 264 263 262 259 257 256 256 256 257 258 259 260 260 260 260 260 261 261 260 259 259 260 262
232 232 232 232 233 233 234 237 241 245 249 254 257 260 262 263 264 263 262 262 261 261 261 261 261 260 259 258 258 258 259 260 261 262 263 263 263 263 262 261 260 260 261 263 263 263 262 261 259 256 254 254 255 257 258 259 260 260 260 260 260 261 261 262 261 260 258 258 259
233 233 233 233 233 232 231 230 230 233 237 242 248 253 256 259 260 260 260 259 258 258 259 259 259 259 259 260 260 261 261 262 263 263 264 264 264 263 262 261 261 260 261 261 260 259 258 256 253 252 252 254 256 257 258 260 261 261 261 261 261 263 263 264 263 261 260 258 258
234 234 234 233 233 233 232 229 228 227 227 228 230 234 239 243 246 249 250 251 253 254 256 256 256 257 259 261 262 264 264 265 265 265 264 264 263 262 261 261 260 260 260 259 257 255 253 251 249 250 255 259 261 261 260 261 261 261 262 263 264 266 267 267 266 264 262 260 259
235 235 235 235 235 234 234 232 230 229 228 228 228 229 232 236 239 242 244 244 246 248 250 254 257 260 263 265 266 266 266 266 265 264 263 262 261 260 260 259 258 258 257 256 254 252 249 248 248 254 261 266 267 266 264 263 263 262 263 265 266 266 267 268 269 268 266 263 261
237 237 237 237 237 237 237 235 234 232 230 230 230 231 233 236 239 241 243 243 243 244 246 250 255 260 265 269 269 267 265 264 263 263 261 260 258 258 257 256 256 255 254 253 251 250 249 250 254 261 268 272 269 266 264 263 263 263 263 264 265 265 265 266 268 268 267 265 263
239 239 238 238 238 238 239 239 237 235 233 232 231 232 234 236 238 241 242 243 243 243 246 249 253 256 260 263 265 264 263 261 261 260 259 258 256 254 254 253 253 253 252 252 251 250 251 256 264 272 275 273 268 263 260 260 261 263 264 265 266 265 264 264 265 266 266 266 266
240 240 239 238 238 238 239 240 240 239 238 236 235 234 234 236 238 240 241 241 241 241 244 248 253 256 257 258 259 259 259 259 259 259 257 256 254 252 251 251 251 251 251 250 249 250 255 267 278 281 279 274 269 262 258 258 261 265 267 267 267 265 264 263 264 266 268 269 270
241 240 239 239 238 238 238 239 240 241 241 241 239 238 237 237 237 238 240 240 240 239 240 243 249 254 255 255 255 255 256 256 257 256 255 252 249 249 249 250 251 251 252 252 253 259 270 279 281 281 279 276 271 265 260 260 264 267 268 267 265 264 263 264 266 269 272 273 273
240 240 240 240 239 238 237 239 240 241 242 242 242 241 240 239 238 238 239 239 240 239 239 239 243 249 253 253 252 252 252 252 252 252 251 249 247 247 250 252 254 256 257 258 262 271 278 279 279 279 278 276 272 267 263 263 265 267 266 265 263 263 263 265 268 272 274 276 276
241 241 242 241 240 239 238 239 239 240 241 242 242 242 242 241 239 239 238 239 240 240 239 238 240 244 249 251 251 251 251 250 250 249 248 247 246 246 248 251 255 258 261 264 270 275 277 276 278 280 279 276 272 268 266 265 266 266 265 264 264 264 266 269 272 274 275 277 277
243 243 243 243 242 241 241 240 239 240 241 241 241 241 241 240 240 239 239 239 240 241 241 240 240 241 243 247 249 250 250 249 249 248 246 245 245 246 247 249 252 256 261 268 273 274 275 277 281 283 281 277 271 268 265 265 265 265 265 265 266 267 269 272 274 275 276 276 277
244 244 245 245 244 244 243 242 241 241 241 240 240 239 238 238 239 239 239 238 239 241 243 243 242 241 242 244 247 248 249 249 248 247 245 244 244 245 247 249 252 257 262 268 271 273 276 280 285 287 285 279 272 267 264 264 264 265 265 266 268 269 271 273 274 275 275 275 276
244 245 246 246 246 246 246 245 243 241 240 238 238 237 237 236 237 237 238 238 239 241 243 243 243 242 243 245 246 248 248 249 248 247 245 244 242 244 248 252 257 263 268 269 270 273 278 282 286 288 287 282 274 268 265 264 265 266 266 268 269 270 272 273 274 274 274 275 275
243 244 245 246 247 248 248 247 245 243 240 237 236 237 237 236 237 237 238 238 238 239 241 241 242 242 243 244 245 247 248 248 247 247 245 243 241 242 247 254 262 268 269 266 267 270 274 278 282 286 286 283 276 270 267 266 266 267 267 267 268 270 271 272 273 274 275 276 276
241 242 244 245 247 248 248 248 246 244 241 238 237 237 238 238 238 238 237 237 237 237 238 240 240 241 242 243 244 245 246 247 247 246 245 242 241 243 250 258 264 267 265 260 259 263 267 272 278 283 285 283 278 274 270 268 267 266 266 266 267 268 269 271 272 275 276 277 277
239 240 242 244 245 247 247 247 246 244 242 239 238 238 239 239 238 237 235 235 236 236 238 239 240 240 241 243 244 245 246 247 247 245 242 240 243 249 257 266 268 266 260 255 256 260 265 270 277 282 284 282 279 276 273 269 266 264 263 263 265 266 268 270 272 275 276 277 276
239 239 240 242 244 245 246 246 245 244 242 240 239 238 238 239 238 237 236 236 235 236 237 238 239 240 241 242 244 245 246 246 245 242 240 240 245 256 268 275 273 266 259 257 260 266 272 276 280 283 284 282 279 276 272 268 264 262 261 262 263 265 267 270 272 274 274 275 275
240 239 240 242 243 244 245 245 244 243 241 240 238 238 237 238 238 238 237 236 235 235 236 237 237 238 239 241 243 244 245 244 243 242 242 244 251 265 275 277 271 265 261 263 268 274 278 281 282 283 283 281 277 274 269 265 262 260 260 261 262 265 267 269 270 271 272 272 273
242 240 240 241 242 244 244 245 244 243 242 241 239 238 237 236 237 237 237 236 235 234 235 236 237 238 239 241 242 244 244 244 244 244 246 251 262 272 276 274 268 264 264 268 274 279 281 282 282 281 280 278 274 270 266 263 261 260 260 260 262 264 266 266 267 268 268 269 270
242 241 240 241 242 244 245 246 246 245 244 243 241 239 238 237 236 236 237 236 235 234 235 236 237 239 241 243 245 246 247 246 247 248 254 264 275 279 278 273 267 265 266 271 277 281 282 281 281 280 278 275 271 267 264 262 261 260 260 261 261 262 263 263 263 264 265 266 267
244 243 243 243 244 246 247 248 249 249 248 246 244 241 239 238 237 237 237 237 236 235 235 235 237 241 244 246 249 249 247 247 249 254 264 274 280 280 277 271 266 265 268 274 279 282 282 281 280 279 277 273 269 266 264 262 262 261 261 260 259 259 260 261 261 262 263 264 266
251 250 250 250 250 251 252 252 253 253 252 250 247 244 242 240 238 238 238 237 236 235 235 235 238 242 246 248 249 248 247 248 255 265 274 278 278 276 272 266 263 265 269 275 279 281 282 281 279 276 273 270 267 265 263 263 262 261 259 258 257 258 259 260 261 262 262 263 265
258 259 262 262 259 258 259 259 260 259 257 255 251 248 246 243 241 239 237 236 235 234 235 236 239 244 248 249 250 251 255 261 269 276 278 276 273 269 263 260 261 264 268 273 276 278 278 277 275 271 267 265 263 262 262 261 260 259 257 256 256 257 258 259 260 261 261 262 263